Regional Weather Roundup
Issued by NWS

Home | Current Version | Previous Version | Text Only | Print | Product List | Glossary Off
Versions: 1 2 3 4 5 6 7 8 9 10 11 12 13 14 15 16 17 18 19 20 21 22 23 24 25 26 27 28 29 30 31 32 33 34 35 36 37 38 39 40 41 42 43 44 45 46 47 48 49 50

000
ASUS43 KMKX 250511
RWRWI

WISCONSIN REGIONAL WEATHER ROUNDUP
NATIONAL WEATHER SERVICE MILWAUKEE/SULLIVAN WI
1200 AM CDT SAT APR 25 2015

NOTE: "FAIR" INDICATES FEW OR NO CLOUDS BELOW 12,000 FEET WITH NO
SIGNIFICANT WEATHER AND/OR OBSTRUCTIONS TO VISIBILITY.

WIZ001-002-006>008-014>016-023>028-250600-
NORTHWEST WISCONSIN

CITY           SKY/WX    TMP DP  RH WIND       PRES   REMARKS
SUPERIOR ARPT  CLOUDY    35  31  87 E10G16    29.95S WCI  27
ASHLAND        CLOUDY    37  33  85 NE7       29.95F WCI  32
HAYWARD        CLOUDY    42  31  64 E7        29.89F
SIREN          CLOUDY    44  30  57 E6        29.87S
CUMBERLAND     CLOUDY    43  32  65 SE9       29.86F
RICE LAKE      CLOUDY    46  31  57 E12       29.88F
CHETEK         CLOUDY    45  32  60 E10G16    29.88F
LADYSMITH      CLOUDY    47  30  51 SE8G18    29.91S
EAU CLAIRE     CLOUDY    43  35  73 SE14G20   29.88F
MENOMONIE      CLOUDY    43  36  75 E10G17    29.88S
NEW RICHMOND   CLOUDY    44  36  72 SE9       29.84F
OSCEOLA        CLOUDY    46  37  69 SE17G24   29.86F
$$

WIZ003>005-009-010-017-018-250600-
NORTH CENTRAL WISCONSIN

CITY           SKY/WX    TMP DP  RH WIND       PRES   REMARKS
MANITOWISH WTR CLOUDY    41  29  64 SE7       29.94S
ARBOR VITAE    CLOUDY    42  31  66 SE7       29.94S
WOODRUFF       CLOUDY    42  31  66 SE7       29.94S
RHINELANDER    CLOUDY    39  28  64 SE8       29.96S WCI  33
EAGLE RIVER    CLOUDY    39  25  56 S8        29.96R WCI  34
LAND O LAKES   CLOUDY    39  29  69 CALM      29.96S
PHILLIPS       CLOUDY    41  32  68 SE12      29.92S
TOMAHAWK       CLOUDY    40  29  65 CALM      29.94F
MEDFORD        CLOUDY    38  33  80 SE7       29.92F WCI  33
MERRILL        CLOUDY    41  30  64 SE5       29.95S
$$

WIZ029-030-035-036-043>047-250600-
CENTRAL WISCONSIN

CITY           SKY/WX    TMP DP  RH WIND       PRES   REMARKS
WAUSAU         CLOUDY    41  29  62 SE9       29.94S
MOSINEE        CLOUDY    37  32  81 SE6       29.95F WCI  33
MARSHFIELD     LGT RAIN  39  34  82 E12       29.93S WCI  32
STEVENS POINT  DRIZZLE   37  31  81 SE8       29.96S WCI  30
WAUPACA        LGT RAIN  39  33  78 E7        29.99S WCI  34
WAUTOMA        CLOUDY    38  37  96 E8        29.97S WCI  32
WISC RAPIDS    LGT RAIN  39  34  82 E9        29.96S WCI  33
CAMP DOUGLAS   CLOUDY    39  39 100 E12       29.91F WCI  32
$$

WIZ011>013-019>022-031-037>040-048>050-250600-
NORTHEAST WISCONSIN

CITY           SKY/WX    TMP DP  RH WIND       PRES   REMARKS
ANTIGO         CLOUDY    37  28  69 E8        29.96S WCI  31
SHAWANO        CLOUDY    40  25  53 E5        30.00S
OCONTO         CLOUDY    38  26  61 CALM      30.01S
STURGEON BAY   CLOUDY    39  19  45 E7        30.02S WCI  34
GREEN BAY      CLOUDY    40  26  57 SE3       30.01S
MANITOWOC      CLOUDY    39  30  70 CALM      30.01S
APPLETON       CLOUDY    37  30  75 E8        29.99F WCI  31
CLINTONVILLE   CLOUDY    39  23  52 SE5       29.99F
OSHKOSH        LGT RAIN  39  34  82 E12       29.97F WCI  32
$$

WIZ032>034-041-042-053>061-250600-
SOUTHWEST WISCONSIN

CITY           SKY/WX    TMP DP  RH WIND       PRES   REMARKS
LA CROSSE      CLOUDY    44  38  79 SE10      29.86F
SPARTA         CLOUDY    41  36  82 E9G18     29.90S
VIROQUA        CLOUDY    40  39  95 E17G25    29.85F WCI  31
BOSCOBEL       CLOUDY    43  37  79 E7        29.88F
PRAIRIE DU CHI CLOUDY    44  36  74 E14       29.84S
PLATTEVILLE    CLOUDY    42  37  84 E17G25    29.85S
$$

WIZ056-057-062-063-064-067-068-250600-
SOUTH CENTRAL WISCONSIN

CITY           SKY/WX    TMP DP  RH WIND       PRES   REMARKS
REEDSBURG      CLOUDY    39  34  82 E8        29.92F WCI  33
BARABOO/DELLS  CLOUDY    38  33  81 E10       29.92F WCI  31
LONE ROCK      CLOUDY    41  34  76 E17       29.90F
MINERAL POINT  CLOUDY    41  36  81 E16       29.86F
MADISON        CLOUDY    40  34  79 E10       29.93S WCI  33
MIDDLETON      CLOUDY    41  36  81 E10       29.92F
WATERTOWN      CLOUDY    38  36  90 E10       29.94S WCI  31
MONROE         CLOUDY    39  36  87 E10G21    29.88F WCI  32
JANESVILLE     CLOUDY    41  34  75 E16       29.90F
$$

WIZ051-052-058>065-066-070>072-250600-
SOUTHEAST WISCONSIN

CITY           SKY/WX    TMP DP  RH WIND       PRES   REMARKS
MILWAUKEE      CLOUDY    39  33  79 NE6       29.98R WCI  35
WAUKESHA       CLOUDY    36  32  87 E7        29.97S WCI  30
MILWAUKEE/TIMM CLOUDY    37  32  81 NE10      29.98S WCI  30
RACINE         CLOUDY    40  33  76 E12       29.98S WCI  33
BURLINGTON     CLOUDY    38  32  78 E9        29.94S WCI  32
KENOSHA        CLOUDY    40  34  79 E16       29.94F WCI  31
FOND DU LAC    CLOUDY    39  33  79 E8        29.97F WCI  33
SHEBOYGAN      LGT RAIN  37  33  85 NE7       29.98F WCI  32
WEST BEND      CLOUDY    36  32  87 E3        29.98R
JUNEAU         CLOUDY    37  34  88 E14       29.96S WCI  29
$$

LSZ147-162-250600-
LAKE SUPERIOR

STATION/POSITION TIME  TEMP    WIND        PRES    WAVE
                       AIR SEA DIR/SP/G            HT/PER
                 (UTC) (F)     (DEG/KT/KT) (MB)    (FT/S)
W MID LAKE BUOY  0450   35 34   70/ 14/ 16 1017.5F   3/ 5
DEVILS ISLAND    0500   36      70/ 19/ 21 1015.5F
PORT WING        0440   38      40/ 12/ 14 1014.2F
SAXON HARBOR     0400   38        CALM     1013.9F
$$

LMZ867-665-643>646-250600-
LAKE MICHIGAN

STATION/POSITION TIME  TEMP    WIND        PRES    WAVE
                       AIR SEA DIR/SP/G            HT/PER
                 (UTC) (F)     (DEG/KT/KT) (MB)    (FT/S)
CHAMBERS ISLAND  0400   39      70/  4/  7 1016.6S
NORTHPORT PIER   0400   38      80/  7/  8 1016.6F
SISTER BAY       0417   39      90/ 11/ 15   N/A
KEWAUNEE LAKESHO 0400   39      80/  3/  7 1015.2R
SHEBOYGAN LAKESH 0500   39      50/ 10/ 11 1016.3F
PORT WASHINGTON  0400   40      40/ 15/ 20 1015.2F
MILWAUKEE LAKESH 0400   38      40/ 10/ 11   N/A
KENOSHA   LAKESH 0500   41      70/ 17/ 19 1013.9F
$$

TC  - TEMPERATURE IN CELSIUS
VSB - VISIBILITY IN STATUTE MILES
WCI - WIND CHILL INDEX
HX  - HEAT INDEX




USA.gov is the U.S. government's official web portal to all federal, state and local government web resources and services.